Regional Weather Roundup
Issued by NWS

Home | Current Version | Previous Version | Graphics & Text | Print | Product List | Glossary On
Versions: 1 2 3 4 5 6 7 8 9 10 11 12 13 14 15 16 17 18 19 20 21 22 23 24 25 26 27 28 29 30 31 32 33 34 35 36 37 38 39 40 41 42 43 44 45 46 47 48 49 50
002
ASUS43 KMKX 281921
RWRWI

WISCONSIN REGIONAL WEATHER ROUNDUP
NATIONAL WEATHER SERVICE MILWAUKEE/SULLIVAN WI
200 PM CDT SAT MAY 28 2016

NOTE: "FAIR" INDICATES FEW OR NO CLOUDS BELOW 12,000 FEET WITH NO
SIGNIFICANT WEATHER AND/OR OBSTRUCTIONS TO VISIBILITY.

WIZ001-002-006>008-014>016-023>028-282000-
NORTHWEST WISCONSIN

CITY           SKY/WX    TMP DP  RH WIND       PRES   REMARKS
SUPERIOR ARPT  CLOUDY    50  48  92 NE5       29.79F
ASHLAND        CLOUDY    61  56  83 NW3       29.76F
HAYWARD        PTSUNNY   71  62  73 SW6       29.75F
SIREN          LGT RAIN  66  59  76 CALM      29.77S
CUMBERLAND     CLOUDY    68  61  77 SW6       29.78S
RICE LAKE      CLOUDY    68  61  78 W3        29.78S
CHETEK         CLOUDY    71  65  80 SW6       29.76S
LADYSMITH      PTSUNNY   75  64  69 CALM      29.76F
EAU CLAIRE     LGT RAIN  67  66  97 S7        29.77R FOG
MENOMONIE      LGT RAIN  69  68  98 SE9       29.78R
NEW RICHMOND   CLOUDY    67  63  87 NW6       29.77F
OSCEOLA        LGT RAIN  65  65  98 CALM      29.80S
$$

WIZ003>005-009-010-017-018-282000-
NORTH CENTRAL WISCONSIN

CITY           SKY/WX    TMP DP  RH WIND       PRES   REMARKS
MANITOWISH WTR NOT AVBL
ARBOR VITAE    RAIN      65  64  94 CALM      29.77F
WOODRUFF       RAIN      65  64  94 CALM      29.77F
RHINELANDER    LGT RAIN  69  66  90 S10       29.77F
EAGLE RIVER      N/A     69  68  97 S3        29.77S
LAND O LAKES   RAIN      67  66  95 E5        29.79S
PHILLIPS       CLOUDY    68  65  92 NE5       29.75R
TOMAHAWK       RAIN      67  65  93 CALM      29.75F
MEDFORD        HVY RAIN  66  66 100 S12       29.77R
MERRILL        CLOUDY    73  67  79 S18G28    29.76F
$$

WIZ029-030-035-036-043>047-282000-
CENTRAL WISCONSIN

CITY           SKY/WX    TMP DP  RH WIND       PRES   REMARKS
WAUSAU         LGT RAIN  75  66  73 S13       29.76S
MOSINEE        CLOUDY    73  66  78 S20G26    29.79S
MARSHFIELD     CLOUDY    75  64  68 W16G23    29.78R
STEVENS POINT  PTSUNNY   76  63  62 SW17G25   29.80S
WAUPACA        MOSUNNY   80  64  57 S16G23    29.82R HX  82
WAUTOMA        PTSUNNY   77  63  61 SW12G28   29.82S
WISC RAPIDS    SUNNY     79  61  53 SW20G30   29.80S HX  80
CAMP DOUGLAS   PTSUNNY   77  63  61 S15G25    29.80S
$$

WIZ011>013-019>022-031-037>040-048>050-282000-
NORTHEAST WISCONSIN

CITY           SKY/WX    TMP DP  RH WIND       PRES   REMARKS
ANTIGO         PTSUNNY   73  67  83 S15G25    29.80F
SHAWANO        CLOUDY    78  65  63 SW8G18    29.82R HX  80
OCONTO         CLOUDY    78  69  75 S10G16    29.81R HX  80
STURGEON BAY   NOT AVBL
GREEN BAY      CLOUDY    77  67  71 S15G25    29.82R
MANITOWOC      PTSUNNY   68  62  81 S23G29    29.87R
APPLETON       PTSUNNY   75  63  64 SW16G22   29.82R
CLINTONVILLE   PTSUNNY   79  63  57 SW22G30   29.81S HX  80
OSHKOSH        PTSUNNY   78  65  63 S18G28    29.82F HX  80
$$

WIZ032>034-041-042-053>061-282000-
SOUTHWEST WISCONSIN

CITY           SKY/WX    TMP DP  RH WIND       PRES   REMARKS
LA CROSSE      PTSUNNY   78  64  61 S13       29.77F HX  80
SPARTA         MOSUNNY   77  62  58 SW13G23   29.79F
VIROQUA        PTSUNNY   76  61  59 S17G24    29.81F
BOSCOBEL       PTSUNNY   81  62  52 S9G17     29.80F HX  82
PRAIRIE DU CHI MOSUNNY   78  60  53 S10       29.79F HX  80
PLATTEVILLE    PTSUNNY   78  65  64 S15       29.83F HX  80
$$

WIZ056-057-062-063-064-067-068-282000-
SOUTH CENTRAL WISCONSIN

CITY           SKY/WX    TMP DP  RH WIND       PRES   REMARKS
REEDSBURG      MOSUNNY   77  64  64 S15       29.81F
BARABOO/DELLS  PTSUNNY   78  62  57 SW12G23   29.82F HX  80
LONE ROCK      MOSUNNY   81  62  52 S15       29.81F HX  82
MINERAL POINT  MOSUNNY   79  63  57 S13G20    29.83F HX  80
MADISON        PTSUNNY   80  62  54 S20G29    29.82F HX  81
MIDDLETON      PTSUNNY   81  64  55 SW16G24   29.83F HX  82
WATERTOWN      PTSUNNY   78  65  62 SW16G26   29.84F HX  80
MONROE         PTSUNNY   77  63  61 S20G28    29.86S
JANESVILLE     MOSUNNY   81  63  54 S20G26    29.86F HX  82
$$

WIZ051-052-058>065-066-070>072-282000-
SOUTHEAST WISCONSIN

CITY           SKY/WX    TMP DP  RH WIND       PRES   REMARKS
MILWAUKEE      CLOUDY    78  65  63 S18G26    29.89R HX  80
WAUKESHA       PTSUNNY   75  64  69 S16G24    29.89S
MILWAUKEE/TIMM PTSUNNY   77  63  61 S18G24    29.88S
RACINE         CLOUDY    79  63  57 SW18G25   29.91S HX  80
BURLINGTON     CLOUDY    78  64  61 S16G24    29.89S HX  80
KENOSHA        CLOUDY    79  64  60 SW17G25   29.90S HX  81
FOND DU LAC    CLOUDY    80  67  64 S20G26    29.83F HX  82
SHEBOYGAN      CLOUDY    73  65  75 S10       29.87R
WEST BEND      CLOUDY    77  64  65 S15G22    29.86F
JUNEAU         PTSUNNY   78  65  64 S17G26    29.86S
$$

LSZ147-162-282000-
LAKE SUPERIOR

STATION/POSITION TIME  TEMP    WIND        PRES    WAVE
                       AIR SEA DIR/SP/G            HT/PER
                 (UTC) (F)     (DEG/KT/KT) (MB)    (FT/S)
W MID LAKE BUOY  1850   40 38   50/  4/  6 1009.0R   1/ 4
DEVILS ISLAND    1900   45     330/  5/  5 1009.1F
SAXON HARBOR     1800   50      CALM  /  1 1008.5F
$$

LMZ867-665-643>646-282000-
LAKE MICHIGAN

STATION/POSITION TIME  TEMP    WIND        PRES    WAVE
                       AIR SEA DIR/SP/G            HT/PER
                 (UTC) (F)     (DEG/KT/KT) (MB)    (FT/S)
CHAMBERS ISLAND  1800   69     140/  9/ 15 1009.8F
N MID LAKE BUOY  1850   54 46  190/ 17/ 21 1010.8F   3/ 5
NORTHPORT PIER   1800   61     170/ 10/ 19 1010.8S
SISTER BAY       1820   68     180/ 24/ 29   N/A
ALGOMA LAKESHORE 1817          190/ 11/ 14   N/A
KEWAUNEE LAKESHO 1800   54     180/ 12/ 14 1010.5S
SHEBOYGAN LAKESH 1900   55     180/ 17/ 18 1011.9R
PORT WASHINGTON  1800   62     190/  7/ 11 1012.5S
S MID LAKE BUOY  1850   56 50  160/ 12/ 14 1013.2R   1/ 3
KENOSHA   LAKESH 1900   60     160/ 14/ 17 1012.2F
$$

TC  - TEMPERATURE IN CELSIUS
VSB - VISIBILITY IN STATUTE MILES
WCI - WIND CHILL INDEX
HX  - HEAT INDEX





USA.gov is the U.S. government's official web portal to all federal, state and local government web resources and services.